Regional Weather Roundup
Issued by NWS

Home | Current Version | Previous Version | Graphics & Text | Print | Product List | Glossary On
Versions: 1 2 3 4 5 6 7 8 9 10 11 12 13 14 15 16 17 18 19 20 21 22 23 24 25 26 27 28 29 30 31 32 33 34 35 36 37 38 39 40 41 42 43 44 45 46 47 48 49 50
000
ASUS43 KMKX 302300
RWRWI

WISCONSIN REGIONAL WEATHER ROUNDUP
NATIONAL WEATHER SERVICE MILWAUKEE/SULLIVAN WI
600 PM CDT SAT JUL 30 2016

NOTE: "FAIR" INDICATES FEW OR NO CLOUDS BELOW 12,000 FEET WITH NO
SIGNIFICANT WEATHER AND/OR OBSTRUCTIONS TO VISIBILITY.

WIZ001-002-006>008-014>016-023>028-310000-
NORTHWEST WISCONSIN

CITY           SKY/WX    TMP DP  RH WIND       PRES   REMARKS
SUPERIOR ARPT  SUNNY     69  63  81 NE7       30.01F
ASHLAND        SUNNY     75  60  59 NE10      30.02F
HAYWARD        MOSUNNY   77  57  50 S5        30.02F
SIREN          PTSUNNY   75  57  53 S3        30.01F
CUMBERLAND     SUNNY     77  59  53 SE7       30.02S
RICE LAKE      SUNNY     78  58  49 SE8       30.03S
CHETEK         MOSUNNY   79  60  51 MISG      30.02S HX  80
LADYSMITH      SUNNY     80  54  40 S5        30.04S HX  80
EAU CLAIRE     NOT AVBL
MENOMONIE      PTSUNNY   83  61  48 E6        30.00S HX  83
NEW RICHMOND   SUNNY     79  59  49 SE7       30.01S HX  80
OSCEOLA        SUNNY     80  60  50 SE7       30.02F HX  81
$$

WIZ003>005-009-010-017-018-310000-
NORTH CENTRAL WISCONSIN

CITY           SKY/WX    TMP DP  RH WIND       PRES   REMARKS
MANITOWISH WTR SUNNY     76  54  45 E5        30.05F
ARBOR VITAE    MOSUNNY   77  52  41 S3        30.06S
WOODRUFF       MOSUNNY   77  52  41 S3        30.06S
RHINELANDER    MOSUNNY   76  53  44 SE7       30.07F
EAGLE RIVER    SUNNY     76  48  38 E7        30.06S
LAND O LAKES   MOSUNNY   77  49  36 E8        30.07F
PHILLIPS       CLOUDY    77  57  49 SE7       30.03F
TOMAHAWK       SUNNY     75  54  47 SE3       30.06S
MEDFORD        SUNNY     75  58  55 CALM      30.03F
MERRILL        MOSUNNY   74  58  58 SE3       30.06S
$$

WIZ029-030-035-036-043>047-310000-
CENTRAL WISCONSIN

CITY           SKY/WX    TMP DP  RH WIND       PRES   REMARKS
WAUSAU         MOSUNNY   74  56  53 E8        30.03S
MOSINEE        MOSUNNY   75  55  50 E7        30.05S
MARSHFIELD     MOSUNNY   77  58  51 E8        30.03S
STEVENS POINT  SUNNY     75  56  52 E9        30.04S
WAUPACA        MOSUNNY   79  52  38 NE6       30.04S
WAUTOMA        MOSUNNY   76  60  57 E6        30.03S
WISC RAPIDS    MOSUNNY   79  57  46 E13       30.04S HX  80
CAMP DOUGLAS   NOT AVBL
$$

WIZ011>013-019>022-031-037>040-048>050-310000-
NORTHEAST WISCONSIN

CITY           SKY/WX    TMP DP  RH WIND       PRES   REMARKS
ANTIGO         SUNNY     73  56  56 CALM      30.07S
SHAWANO        SUNNY     78  51  38 E8        30.05F
OCONTO         SUNNY     75  53  46 NE7       30.04F
STURGEON BAY   SUNNY     74  54  49 E6        30.05S
GREEN BAY      SUNNY     74  55  51 N13       30.04S
MANITOWOC      NOT AVBL
APPLETON       MOSUNNY   75  50  41 NE9       30.03S
CLINTONVILLE   SUNNY     75  50  41 NE8       30.04S
OSHKOSH        MOSUNNY   76  53  44 NE9       30.02F
$$

WIZ032>034-041-042-053>061-310000-
SOUTHWEST WISCONSIN

CITY           SKY/WX    TMP DP  RH WIND       PRES   REMARKS
LA CROSSE      SUNNY     79  62  56 SE5       29.98S HX  80
SPARTA         PTSUNNY   77  63  61 SE5       30.01S
VIROQUA        MOSUNNY   74  61  63 E6        30.02S
BOSCOBEL       MOSUNNY   81  62  52 E5        29.99F HX  82
PRAIRIE DU CHI PTSUNNY   78  62  59 NE7       29.98F
PLATTEVILLE    SUNNY     79  64  59 E6        30.00F HX  80
$$

WIZ056-057-062-063-064-067-068-310000-
SOUTH CENTRAL WISCONSIN

CITY           SKY/WX    TMP DP  RH WIND       PRES   REMARKS
REEDSBURG      CLOUDY    76  63  62 E6        30.01S
BARABOO/DELLS  PTSUNNY   78  60  54 E9        30.02S
LONE ROCK      NOT AVBL
MINERAL POINT  MOSUNNY   77  63  61 NE5       30.02S
MADISON        MOSUNNY   78  59  51 NE12      30.01R
MIDDLETON      MOSUNNY   79  62  55 NE5       30.02S HX  80
WATERTOWN      SUNNY     77  58  52 NE6       30.01S
MONROE         SUNNY     77  59  53 NE7       30.00S
JANESVILLE     MOSUNNY   81  57  44 NE9       29.99S HX  81
$$

WIZ051-052-058>065-066-070>072-310000-
SOUTHEAST WISCONSIN

CITY           SKY/WX    TMP DP  RH WIND       PRES   REMARKS
MILWAUKEE      PTSUNNY   74  61  63 NE12      30.02S
WAUKESHA       MOSUNNY   73  55  53 E10       30.03S
MILWAUKEE/TIMM SUNNY     73  52  46 NE9       30.03S
RACINE         CLOUDY    72  62  71 N14       30.03S
BURLINGTON     MOSUNNY   76  57  52 E8        30.01S
KENOSHA        CLOUDY    73  62  68 NE8       30.01S
FOND DU LAC    SUNNY     77  54  44 NE9       30.03S
SHEBOYGAN      SUNNY     72  57  59 NE14      30.03S
WEST BEND      SUNNY     73  54  49 NE9       30.03S
JUNEAU         SUNNY     75  56  52 NE7       30.04R
$$

LSZ147-162-310000-
LAKE SUPERIOR

STATION/POSITION TIME  TEMP    WIND        PRES    WAVE
                       AIR SEA DIR/SP/G            HT/PER
                 (UTC) (F)     (DEG/KT/KT) (MB)    (FT/S)
W MID LAKE BUOY  2150   66 65   50/  6/  6 1017.0F   0
DEVILS ISLAND    2200   67      60/  9/ 10 1017.1F
PORT WING        2240   64      20/ 12/ 13 1016.6F
SAXON HARBOR     2240   73      50/  9/ 11 1016.3F
$$

LMZ867-665-643>646-310000-
LAKE MICHIGAN

STATION/POSITION TIME  TEMP    WIND        PRES    WAVE
                       AIR SEA DIR/SP/G            HT/PER
                 (UTC) (F)     (DEG/KT/KT) (MB)    (FT/S)
CHAMBERS ISLAND  2200   73      10/  9/ 10 1017.6F
S GREEN BAY BUOY 2100   72 72   40/ 10/ 12 1017.3
N MID LAKE BUOY  2150   71 70  360/ 10/ 12 1016.8F   1/ 3
NORTHPORT PIER   2200   79      60/  9/ 11 1017.3F
SISTER BAY       2221   78      40/  7/ 10   N/A
ALGOMA LAKESHORE 2213           70/ 14/ 17   N/A
KEWAUNEE LAKESHO 2200   72                   N/A
SHEBOYGAN LAKESH 2200   66      10/ 10/ 11 1017.1F
PORT WASHINGTON  2240   72      40/ 11/ 14 1017.3S
ATWATER BUOY     2200   68      30/ 10/ 12 1018.1R
MILWAUKEE LAKESH 2210   68      20/ 10/ 12   N/A
S MID LAKE BUOY  2150   71 74   30/  8/ 10 1015.2S   1/ 4
KENOSHA   LAKESH 2200   71      30/ 12/ 12 1015.6F
$$

TC  - TEMPERATURE IN CELSIUS
VSB - VISIBILITY IN STATUTE MILES
WCI - WIND CHILL INDEX
HX  - HEAT INDEX





USA.gov is the U.S. government's official web portal to all federal, state and local government web resources and services.